{"data":{"norad_id":32289,"intl_designator":"2007-055A","name":"YAOGAN-3","alt_names":[],"object_type":"PAYLOAD","status":"ACTIVE","operator":null,"country":"PRC","launch_date":"2007-11-11","launch_site_code":"TAISC","launch_vehicle":null,"mission":null,"orbit_class":"UNKNOWN","rcs_meters":5.129,"size_class":null,"mass_kg":null,"dimensions":null,"purposes":["earth_obs"],"wikipedia_slug":null,"has_3d_model":false,"image_url":null,"decayed_at":null,"tle_current":{"epoch":"2026-05-25T04:06:56.038752Z","epoch_age_seconds":56709,"freshness":"FRESH","line1":"1 32289U 07055A   26145.17148193  .00002129  00000+0  22279-3 0  9991","line2":"2 32289  97.8170 175.2773 0001889  97.2503 262.8930 14.90677822  2448","mean_motion":14.90677822,"eccentricity":0.0001889,"inclination_deg":97.817,"raan_deg":175.2773,"arg_perigee_deg":97.2503,"mean_anomaly_deg":262.893,"bstar":0.00022279,"rev_number":244,"period_min":96.600350441116,"perigee_km":594.50341050903,"apogee_km":597.13817176252,"semimajor_km":6973.9577911358,"source":"CELESTRAK","updated_at":"2026-05-25T13:38:12.745133Z"}}}